Flag for Russia Weather past 2 weeks in Yekaterinburg, Russia

Now
16 °F

Sunny.


Feels Like: 5 °F
Forecast: 11 / 15 °F
Wind: 8 mph from Southwest

Location: Ekaterinburg

Current Time: Jan 28, 2015 at 2:45:22 PM

Latest Report: Jan 28, 2015 at 2:00 PM


Visibility: 10 mi

Pressure: 30.24 "Hg

Humidity: 41%

Dew point: -4 °F

Location of YekaterinburgLocation

Historic Weather in Yekaterinburg — Graph

°F

Yekaterinburg temperature yesterday

Maximum temperature yesterday: 21 °F (at 4:00 PM)
Minimum temperature yesterday: 9 °F (at 10:30 PM)
Average temperature yesterday: 13 °F

Past Weeks' High & Low Weather Summary

 TemperatureHumidityPressure
High34 °F (Jan 15, 12:30 PM)100% (Jan 13, 9:30 PM)30.80 "Hg (Jan 13, 9:30 PM)
Low-18 °F (Jan 25, 2:00 AM)27% (Jan 27, 4:00 PM)29.45 "Hg (Jan 13, 1:00 PM)
Average14 °F78%30.11 "Hg
* Reported Jan 13 1:00 PM — Jan 28 1:30 PM, Yekaterinburg, Weather by CustomWeather, © 2014

Note: Actual official high and low records may vary slightly from our data, if they occured in-between our weather recording intervals... More about our weather records

Advertising

Yekaterinburg weather history for previous 24 hours

 ConditionsComfort  
Time TempWeatherWind HumidityBarometerVisibility
1:30 PM
Jan 28
16 °FSunny.8 mph41%30.24 "Hg10 mi
1:00 PM14 °FSunny.10 mph44%30.27 "Hg10 mi
12:30 PM14 °FSunny.15 mph41%30.27 "Hg10 mi
12:00 PM12 °FSunny.8 mph48%30.27 "Hg10 mi
11:30 AM10 °FSunny.8 mph47%30.27 "Hg10 mi
11:00 AM10 °FSunny.8 mph44%30.30 "Hg10 mi
10:30 AM9 °FSunny.10 mph47%30.30 "Hg10 mi
10:00 AM7 °FClear.8 mph51%30.30 "Hg10 mi
9:30 AM7 °FClear.6 mph51%30.30 "Hg10 mi
9:00 AM9 °FClear.6 mph43%30.30 "Hg10 mi
8:30 AM9 °FClear.3 mph43%30.30 "Hg10 mi
8:00 AM10 °FClear.13 mph44%30.30 "Hg10 mi
7:30 AM10 °FClear.10 mph40%30.30 "Hg10 mi
7:00 AM10 °FClear.10 mph44%30.30 "Hg10 mi
6:30 AM10 °FClear.17 mph44%30.30 "Hg10 mi
6:00 AM10 °FClear.17 mph44%30.30 "Hg10 mi
5:30 AM10 °FClear.15 mph44%30.30 "Hg10 mi
5:00 AM10 °FClear.15 mph44%30.30 "Hg10 mi
4:30 AM10 °FClear.13 mph40%30.30 "Hg10 mi
4:00 AM9 °FClear.8 mph43%30.33 "Hg10 mi
3:30 AM9 °FClear.10 mph47%30.33 "Hg10 mi
3:00 AM9 °FClear.10 mph47%30.33 "Hg10 mi
2:30 AM9 °FClear.10 mph47%30.33 "Hg10 mi
2:00 AM9 °FClear.10 mph47%30.33 "Hg10 mi
1:30 AM9 °FClear.10 mph47%30.36 "Hg10 mi
1:00 AM9 °FClear.10 mph47%30.36 "Hg10 mi
12:30 AM10 °FClear.13 mph44%30.36 "Hg10 mi
12:00 AM10 °FClear.13 mph44%30.36 "Hg10 mi
11:30 PM
Jan 27
9 °FClear.10 mph47%30.36 "Hg10 mi
11:00 PM10 °FClear.10 mph44%30.36 "Hg10 mi
10:30 PM9 °FClear.8 mph47%30.36 "Hg10 mi
10:00 PM10 °FClear.10 mph44%30.36 "Hg10 mi
9:30 PM10 °FClear.8 mph44%30.36 "Hg10 mi
9:00 PM10 °FClear.10 mph44%30.36 "Hg10 mi
8:30 PM12 °FClear.10 mph40%30.36 "Hg10 mi
8:00 PM12 °FClear.13 mph40%30.36 "Hg10 mi
7:30 PM12 °FClear.10 mph40%30.36 "Hg10 mi
7:00 PM14 °FClear.13 mph37%30.36 "Hg10 mi
6:30 PM16 °FClear.13 mph31%30.36 "Hg10 mi
6:00 PM16 °FSunny.10 mph34%30.36 "Hg10 mi
5:30 PM18 °FSunny.13 mph29%30.36 "Hg10 mi
5:00 PM19 °FSunny.13 mph29%30.36 "Hg10 mi
4:30 PM19 °FSunny.17 mph29%30.36 "Hg10 mi
4:00 PM21 °FSunny.10 mph27%30.36 "Hg10 mi
3:30 PM19 °FSunny.13 mph29%30.36 "Hg10 mi
3:00 PM19 °FSunny.17 mph29%30.36 "Hg10 mi
2:30 PM18 °FSunny.8 mph38%30.36 "Hg10 mi
2:00 PM16 °FSunny.6 mph45%30.36 "Hg10 mi
Weather by CustomWeather, © 2014

See weather overviewHow to use our weather pages